WB5NHL-13 Weather Reports


time (UTC)temp
C
wind
direction
speed
KPH
gust
KPH
rain 1hr
cm
rain 24hr
cm
rain mn
cm
humidity
%
barometer
mb
20260504024519 12 0.0 0.0 0.00 0.00 0.00 85 1017.4
20260504023523 13 0.0 0.0 0.00 0.00 0.00 82 1017.4
20260504022525 13 0.0 0.0 0.00 0.00 0.00 82 1017.3
20260504021528 13 0.0 0.0 0.00 0.00 0.00 80 1017.2
20260504020532 13 0.0 0.0 0.00 0.00 0.00 80 1017.1
20260504015515 14 0.0 0.0 0.00 0.00 0.00 78 1016.9
20260504014518 14 0.0 0.0 0.00 0.00 0.00 77 1016.8
20260504013521 15 0.0 0.0 0.00 0.00 0.00 74 1016.7
20260504012523 15 0.0 0.0 0.00 0.00 0.00 73 1016.5
20260504011526 15 0.0 0.0 0.00 0.00 0.00 70 1016.4
20260504010530 16 0.0 0.0 0.00 0.00 0.00 70 1016.2
20260504005552 16 0.0 0.0 0.00 0.00 0.00 66 1016.2
20260504004517 16 0.0 0.0 0.00 0.00 0.00 63 1015.9
20260504003520 17 0.0 0.0 0.00 0.00 0.00 62 1015.9
20260504002523 17 0.0 0.0 0.00 0.00 0.00 63 1016.0
20260504001527 18 0.0 0.0 0.00 0.00 0.00 60 1016.0
20260504000523 18 0.0 0.0 0.00 0.00 0.00 59 1015.8
20260503235520 19 0.0 0.0 0.00 0.00 0.00 58 1015.7
20260503234517 20 0.0 0.0 0.00 0.00 0.00 54 1015.8
20260503233520 20 0.0 0.0 0.00 0.00 0.00 52 1015.7
20260503232522 20 0.0 0.0 0.00 0.00 0.00 53 1015.7
20260503231545 21 0.0 0.0 0.00 0.00 0.00 51 1015.7
20260503230528 21 0.0 0.0 0.00 0.00 0.00 47 1015.9
20260503225531 21 0.0 0.0 0.00 0.00 0.00 46 1015.9
20260503224516 21 0.0 0.0 0.00 0.00 0.00 43 1016.0
20260503223519 21 0.0 0.0 0.00 0.00 0.00 45 1016.1
20260503222521 22 0.0 0.0 0.00 0.00 0.00 44 1016.0
20260503221526 22 0.0 0.0 0.00 0.00 0.00 43 1015.9
20260503220527 22 0.0 0.0 0.00 0.00 0.00 42 1016.0
20260503215530 22 0.0 0.0 0.00 0.00 0.00 44 1015.9
20260503214515 22 0.0 0.0 0.00 0.00 0.00 41 1016.0
20260503213518 22 0.0 0.0 0.00 0.00 0.00 41 1016.0
20260503212521 23 0.0 0.0 0.00 0.00 0.00 40 1016.1
20260503211523 23 0.0 0.0 0.00 0.00 0.00 40 1016.2
20260503210547 23 0.0 0.0 0.00 0.00 0.00 39 1016.0
20260503205523 23 0.0 0.0 0.00 0.00 0.00 39 1016.1
20260503204521 23 0.0 0.0 0.00 0.00 0.00 40 1016.3
20260503203517 23 0.0 0.0 0.00 0.00 0.00 39 1016.4
20260503202520 23 0.0 0.0 0.00 0.00 0.00 37 1016.5
20260503201523 23 0.0 0.0 0.00 0.00 0.00 39 1016.6
20260503200525 23 0.0 0.0 0.00 0.00 0.00 38 1016.6
20260503195529 23 0.0 0.0 0.00 0.00 0.00 39 1017.1
20260503194531 24 0.0 0.0 0.00 0.00 0.00 42 1017.1
20260503193537 23 0.0 0.0 0.00 0.00 0.00 44 1017.4
20260503192540 23 0.0 0.0 0.00 0.00 0.00 42 1017.6
20260503191522 23 0.0 0.0 0.00 0.03 0.00 41 1017.8
20260503190525 23 0.0 0.0 0.00 0.03 0.00 41 1017.9
20260503185528 23 0.0 0.0 0.00 0.03 0.00 42 1018.1
20260503184531 23 0.0 0.0 0.00 0.03 0.00 42 1018.3
20260503183516 23 0.0 0.0 0.00 0.05 0.00 40 1018.4
20260503182519 22 0.0 0.0 0.00 0.05 0.00 39 1018.6
20260503181542 22 0.0 0.0 0.00 0.05 0.00 40 1018.7
20260503180544 23 0.0 0.0 0.00 0.05 0.00 44 1018.7
20260503175527 22 0.0 0.0 0.00 0.05 0.00 45 1018.7
20260503174524 22 0.0 0.0 0.00 0.08 0.00 45 1018.7
20260503173515 21 0.0 0.0 0.00 0.08 0.00 47 1018.8
20260503172518 21 0.0 0.0 0.00 0.08 0.00 49 1018.8
20260503171516 21 0.0 0.0 0.00 0.08 0.00 49 1018.8
20260503170544 20 0.0 0.0 0.00 0.08 0.00 49 1018.9
20260503150522 15 0.0 0.0 0.00 0.18 0.00 90 1019.9
20260503130520 10 0.0 0.0 0.00 0.51 0.00 99 1019.2
20260503110518 8 0.0 0.0 0.00 0.84 0.00 99 1018.2
20260503081526 9 0.0 0.0 0.00 1.27 0.00 99 1016.6
20260503080516 9 0.0 0.0 0.00 1.32 0.00 99 1016.6
20260503072528 9 0.0 0.0 0.00 1.47 0.00 99 1016.5
20260503071532 9 0.0 0.0 0.00 1.52 0.00 99 1016.3
20260503070517 9 0.0 0.0 0.00 1.55 0.00 99 1016.3
20260503054522 10 0.0 0.0 0.00 1.73 0.00 99 1016.0
20260503053525 10 0.0 0.0 0.00 1.75 0.00 99 1015.8
20260503052527 10 0.0 0.0 0.00 1.75 0.00 99 1015.9
20260503051532 10 0.0 0.0 0.00 1.75 0.00 99 1016.0
20260503050515 10 0.0 0.0 0.00 1.75 0.00 99 1015.9
20260503045518 11 0.0 0.0 0.00 1.75 0.00 99 1015.8
20260503044543 11 0.0 0.0 0.00 1.75 0.00 99 1015.7
20260503043518 11 0.0 0.0 0.00 1.75 0.00 99 1015.5
20260503042527 11 0.0 0.0 0.00 1.75 0.00 99 1015.4
20260503041550 11 0.0 0.0 0.00 1.75 0.00 99 1015.3
20260503040533 11 0.0 0.0 0.00 1.75 0.00 99 1015.3
20260503035520 11 0.0 0.0 0.00 1.75 1.75 99 1015.4
20260503034544 11 0.0 0.0 0.00 1.75 1.75 99 1015.4
20260503033524 11 0.0 0.0 0.00 1.75 1.75 99 1015.7
20260503032528 11 0.0 0.0 0.00 1.75 1.75 99 1015.8
20260503031529 11 0.0 0.0 0.00 1.75 1.75 99 1015.9
20260503030533 11 0.0 0.0 0.00 1.75 1.75 99 1015.7
20260503025517 11 0.0 0.0 0.00 1.75 1.75 99 1015.2